DW9584 Weather Reports


Display with metric or nautical units.
time (UTC)temp
F
wind
direction
speed
MPH
gust
MPH
rain 1hr
in
rain 24hr
in
rain mn
in
humidity
%
barometer
mb
20210615001601 78 45 0.0 1.0 0.00 0.00 0.00 80 1006.9
20210615001052 78 46 0.0 1.0 0.00 0.00 0.00 80 1006.7
20210615000553 78 49 0.0 2.0 0.00 0.00 0.00 79 1006.5
20210615000259 78 47 0.0 2.0 0.00 0.00 0.00 79 1006.5
20210614235616 78 46 0.0 0.0 0.00 0.00 0.00 79 1006.5
20210614235054 79 31 0.0 0.0 0.00 0.00 0.00 78 1006.5
20210614234622 79 44 0.0 0.0 0.00 0.00 0.00 78 1006.6
20210614234106 79 356 0.0 1.0 0.00 0.00 0.00 77 1006.8
20210614233550 79 105 0.0 1.0 0.00 0.00 0.00 75 1006.9
20210614233027 80 105 0.0 1.0 0.00 0.00 0.00 75 1006.9
20210614232505 80 190 0.0 2.0 0.00 0.00 0.00 74 1006.8
20210614232005 80 50 0.0 2.0 0.00 0.00 0.00 74 1006.7
20210614231505 80 18 0.0 1.0 0.00 0.00 0.00 75 1006.7
20210614231004 80 72 0.0 0.0 0.00 0.00 0.00 75 1006.7
20210614230504 80 46 0.0 0.0 0.00 0.00 0.00 74 1006.8
20210614230004 80 50 0.0 0.0 0.00 0.00 0.00 74 1006.7
20210614225507 80 1 0.0 1.0 0.00 0.00 0.00 74 1006.9
20210614225011 80 124 0.0 1.0 0.00 0.00 0.00 74 1006.9
20210614224503 80 76 0.0 2.0 0.00 0.00 0.00 74 1006.9
20210614224002 80 77 0.0 2.0 0.00 0.00 0.00 74 1006.9
20210614223135 80 39 0.0 0.0 0.00 0.00 0.00 76 1006.9
20210614222613 80 68 0.0 0.0 0.00 0.00 0.00 75 1006.9
20210614222049 80 68 0.0 0.0 0.00 0.00 0.00 74 1006.9
20210614221620 81 68 0.0 0.0 0.00 0.00 0.00 73 1007.0
20210614221108 81 68 0.0 0.0 0.00 0.00 0.00 71 1007.3
20210614220547 81 15 0.0 1.0 0.00 0.00 0.00 71 1007.3
20210614220115 82 15 0.0 1.0 0.00 0.00 0.00 69 1007.3
20210614215508 82 15 0.0 2.0 0.00 0.00 0.00 68 1007.4
20210614215008 83 15 0.0 2.0 0.00 0.00 0.00 68 1007.5
20210614214509 83 152 0.0 2.0 0.00 0.00 0.00 70 1007.4
20210614214003 83 152 0.0 3.0 0.00 0.00 0.00 68 1007.4
20210614213504 83 205 0.0 3.0 0.00 0.00 0.00 68 1007.5
20210614213012 83 11 0.0 1.0 0.00 0.00 0.00 71 1007.4
20210614212107 83 355 0.0 2.0 0.00 0.00 0.00 68 1007.4
20210614211625 83 315 0.0 1.0 0.00 0.00 0.00 69 1007.5
20210614211058 83 95 0.0 1.0 0.00 0.00 0.00 70 1007.4
20210614210603 83 94 0.0 2.0 0.00 0.00 0.00 70 1007.4
20210614210152 82 133 0.0 2.0 0.00 0.00 0.00 69 1007.4
20210614205559 83 347 0.0 2.0 0.00 0.00 0.00 68 1007.4
20210614205529 83 347 0.0 2.0 0.00 0.00 0.00 68 1007.4
20210614205048 83 56 0.0 1.0 0.00 0.00 0.00 71 1007.4
20210614204617 83 7 0.0 2.0 0.00 0.00 0.00 68 1007.4
20210614204059 83 7 0.0 2.0 0.00 0.00 0.00 65 1007.3
20210614203547 83 26 0.0 1.0 0.00 0.00 0.00 66 1007.4
20210614203141 83 109 0.0 0.0 0.00 0.00 0.00 68 1007.3
20210614202546 83 108 0.0 1.0 0.00 0.00 0.00 68 1007.4
20210614202045 84 108 0.0 2.0 0.00 0.00 0.00 66 1007.4
20210614201706 84 26 0.0 1.0 0.00 0.00 0.00 66 1007.6
20210614201045 84 15 0.0 1.0 0.00 0.00 0.00 66 1007.6
20210614200543 83 75 0.0 2.0 0.00 0.00 0.00 69 1007.6
20210614200051 83 103 0.0 2.0 0.00 0.00 0.00 69 1007.8
20210614195543 83 87 0.0 2.0 0.00 0.00 0.00 67 1007.9
20210614194722 83 18 0.0 2.0 0.00 0.00 0.00 70 1008.0
20210614194059 83 75 0.0 2.0 0.00 0.00 0.00 69 1008.0
20210614193559 82 210 0.0 4.0 0.00 0.00 0.00 71 1007.9
20210614193209 82 56 0.0 4.0 0.00 0.00 0.00 70 1007.9
20210614192558 82 162 0.0 1.0 0.00 0.00 0.00 69 1007.9
20210614192057 82 80 0.0 1.0 0.00 0.00 0.00 69 1008.0
20210614191647 82 146 0.0 1.0 0.00 0.00 0.00 68 1008.1
20210614191104 83 50 0.0 1.0 0.00 0.00 0.00 68 1008.2
20210614190555 83 134 0.0 2.0 0.00 0.00 0.00 71 1008.2
20210614190214 83 23 0.0 2.0 0.00 0.00 0.00 69 1008.3
20210614185051 83 101 0.0 3.0 0.00 0.00 0.00 69 1008.5
20210614184631 82 50 0.0 1.0 0.00 0.00 0.00 70 1008.5
20210614184050 82 11 0.0 1.0 0.00 0.00 0.00 69 1008.7
20210614183549 82 131 0.0 1.0 0.00 0.00 0.00 70 1008.7
20210614183239 82 295 0.0 2.0 0.00 0.00 0.00 72 1008.8
20210614182559 82 157 0.0 2.0 0.00 0.00 0.00 72 1008.8
20210614182047 82 226 0.0 1.0 0.00 0.00 0.00 69 1008.9
20210614181558 82 167 0.0 2.0 0.00 0.00 0.00 71 1008.9
20210614181058 83 167 0.0 2.0 0.00 0.00 0.00 68 1008.9
20210614180540 83 108 0.0 2.0 0.00 0.00 0.00 69 1009.0
20210614180107 83 32 0.0 2.0 0.00 0.00 0.00 69 1009.1
20210614175546 83 195 0.0 1.0 0.00 0.00 0.00 73 1009.1
20210614175037 82 131 0.0 1.0 0.00 0.00 0.00 73 1009.2
20210614174553 82 97 0.0 2.0 0.00 0.00 0.00 71 1009.3
20210614174046 82 98 0.0 2.0 0.00 0.00 0.00 71 1009.4
20210614173547 81 339 0.0 1.0 0.00 0.00 0.00 73 1009.4
20210614173151 80 13 0.0 1.0 0.00 0.00 0.00 74 1009.6
20210614172613 80 11 0.0 1.0 0.00 0.00 0.00 74 1009.7
20210614172044 79 123 0.0 1.0 0.00 0.00 0.00 75 1009.7
20210614171718 79 121 0.0 1.0 0.00 0.00 0.00 75 1009.9
20210614171043 79 75 0.0 1.0 0.00 0.00 0.00 76 1009.9
20210614170545 79 113 0.0 1.0 0.00 0.00 0.00 76 1010.0
20210614170149 78 167 0.0 1.0 0.00 0.00 0.00 78 1010.1
20210614165543 78 23 0.0 0.0 0.00 0.00 0.00 76 1010.2
20210614165050 78 141 0.0 1.0 0.00 0.00 0.00 76 1010.3
20210614164514 78 141 0.0 1.0 0.00 0.00 0.00 75 1010.3
20210614164004 78 298 0.0 3.0 0.00 0.00 0.00 74 1010.3
20210614163503 78 211 0.0 3.0 0.00 0.00 0.00 76 1010.3
20210614163004 78 26 0.0 2.0 0.00 0.00 0.00 75 1010.4
20210614162503 78 78 0.0 2.0 0.00 0.00 0.00 75 1010.5
20210614162003 78 85 0.0 0.0 0.00 0.00 0.00 74 1010.5
20210614161507 79 4 0.0 0.0 0.00 0.00 0.00 73 1010.5
20210614161039 79 4 0.0 1.0 0.00 0.00 0.00 73 1010.5
20210614160540 80 41 0.0 1.0 0.00 0.00 0.00 70 1010.6
20210614160235 81 1 0.0 3.0 0.00 0.00 0.00 69 1010.6
20210614155545 81 240 0.0 3.0 0.00 0.00 0.00 71 1010.6
20210614155038 81 121 0.0 1.0 0.00 0.00 0.00 70 1010.5
20210614154637 81 229 0.0 2.0 0.00 0.00 0.00 72 1010.5
20210614153533 81 80 0.0 2.0 0.00 0.00 0.00 70 1010.6
20210614153057 80 321 0.0 1.0 0.00 0.00 0.00 73 1010.6
20210614152523 79 181 0.0 2.0 0.00 0.00 0.00 74 1010.7
20210614152025 79 131 0.0 3.0 0.00 0.00 0.00 73 1010.7
20210614151532 79 53 0.0 2.0 0.00 0.00 0.00 73 1010.6
20210614151017 78 348 0.0 2.0 0.00 0.00 0.00 75 1010.7
20210614150512 77 44 0.0 2.0 0.00 0.00 0.00 76 1010.7
20210614150017 76 1 0.0 0.0 0.00 0.00 0.00 78 1010.8
20210614145510 75 60 0.0 0.0 0.00 0.00 0.00 79 1010.8
20210614145014 74 61 0.0 1.0 0.00 0.00 0.00 78 1010.8
20210614144509 74 114 0.0 1.0 0.00 0.00 0.00 77 1010.7
20210614143602 75 205 0.0 3.0 0.00 0.00 0.00 78 1010.8
20210614143135 75 235 0.0 2.0 0.00 0.00 0.00 78 1010.9
20210614142549 75 345 0.0 0.0 0.00 0.00 0.00 78 1010.9
20210614142102 74 195 0.0 1.0 0.00 0.00 0.00 79 1010.9
20210614141626 74 121 0.0 1.0 0.00 0.00 0.00 79 1010.9
20210614141047 74 143 0.0 1.0 0.00 0.00 0.00 79 1010.8
20210614140607 74 17 0.0 0.0 0.00 0.00 0.00 80 1010.8
20210614140137 74 94 0.0 1.0 0.00 0.00 0.00 78 1010.9
20210614135617 73 96 0.0 1.0 0.00 0.00 0.00 80 1010.9
20210614135042 73 31 0.0 0.0 0.00 0.00 0.00 83 1011.0
20210614134647 71 21 0.0 0.0 0.00 0.00 0.00 85 1011.0
20210614133534 70 21 0.0 1.0 0.00 0.00 0.00 85 1011.1
20210614133046 70 345 0.0 1.0 0.00 0.00 0.00 83 1011.1
20210614132537 70 11 0.0 1.0 0.00 0.00 0.00 84 1011.1
20210614132043 70 60 0.0 1.0 0.00 0.00 0.00 84 1011.1
20210614131621 70 44 0.0 1.0 0.00 0.00 0.00 85 1011.0
20210614131040 69 49 0.0 1.0 0.00 0.00 0.00 85 1011.0
20210614130531 69 46 0.0 1.0 0.00 0.00 0.00 85 1011.1
20210614130145 69 129 0.0 1.0 0.00 0.00 0.00 85 1011.1
20210614125530 69 11 0.0 1.0 0.00 0.00 0.00 85 1011.0
20210614125029 68 56 0.0 1.0 0.00 0.00 0.00 86 1011.1
20210614124602 68 56 0.0 1.0 0.00 0.00 0.00 87 1011.1
20210614123524 68 339 0.0 1.0 0.00 0.00 0.00 87 1011.2
20210614123051 68 40 0.0 1.0 0.00 0.00 0.00 88 1011.1
20210614122523 67 8 0.0 1.0 0.00 0.00 0.00 89 1011.1
20210614122033 67 8 0.0 0.0 0.00 0.00 0.00 88 1011.1
20210614121547 67 8 0.0 0.0 0.00 0.00 0.00 88 1011.1
20210614121035 67 8 0.0 1.0 0.00 0.00 0.00 89 1011.1
20210614120529 67 63 0.0 1.0 0.00 0.00 0.00 89 1011.2
20210614120054 67 201 0.0 1.0 0.00 0.00 0.00 89 1011.1
20210614115522 67 98 0.0 0.0 0.00 0.00 0.00 89 1011.2
20210614115037 67 97 0.0 2.0 0.00 0.00 0.00 90 1011.3
20210614114541 67 98 0.0 2.0 0.00 0.00 0.00 90 1011.3
20210614113535 67 83 0.0 1.0 0.00 0.00 0.00 90 1011.3
20210614113050 66 205 0.0 1.0 0.00 0.00 0.00 91 1011.2
20210614112528 66 47 0.0 0.0 0.00 0.00 0.00 91 1011.2
20210614112020 66 44 0.0 1.0 0.00 0.00 0.00 91 1011.1
20210614111530 66 68 0.0 1.0 0.00 0.00 0.00 91 1011.2
20210614111020 66 68 0.0 0.0 0.00 0.00 0.00 91 1011.2
20210614110522 66 71 0.0 1.0 0.00 0.00 0.00 92 1011.3
20210614110105 65 70 0.0 1.0 0.00 0.00 0.00 92 1011.3
20210614105520 65 70 0.0 1.0 0.00 0.00 0.00 92 1011.3
20210614105020 65 71 0.0 1.0 0.00 0.00 0.00 92 1011.2
20210614104535 65 346 0.0 0.0 0.00 0.00 0.00 92 1011.3
20210614103517 65 346 0.0 0.0 0.00 0.00 0.00 92 1011.4
20210614103110 65 44 0.0 0.0 0.00 0.00 0.00 92 1011.3
20210614102534 65 44 0.0 0.0 0.00 0.00 0.00 91 1011.4
20210614102017 65 44 0.0 0.0 0.00 0.00 0.00 91 1011.3
20210614101519 65 44 0.0 0.0 0.00 0.00 0.00 91 1011.4
20210614101028 65 44 0.0 0.0 0.00 0.00 0.00 91 1011.3
20210614100546 65 44 0.0 0.0 0.00 0.00 0.00 91 1011.3
20210614100047 65 44 0.0 0.0 0.00 0.00 0.00 90 1011.3
20210614095516 65 44 0.0 0.0 0.00 0.00 0.00 90 1011.2
20210614095024 65 44 0.0 0.0 0.00 0.00 0.00 90 1011.3
20210614094537 65 44 0.0 0.0 0.00 0.00 0.00 90 1011.3
20210614093520 65 44 0.0 0.0 0.00 0.00 0.00 90 1011.3
20210614093021 65 44 0.0 0.0 0.00 0.00 0.00 89 1011.3
20210614092517 65 44 0.0 0.0 0.00 0.00 0.00 89 1011.3
20210614092025 65 44 0.0 0.0 0.00 0.00 0.00 90 1011.3
20210614091537 65 44 0.0 0.0 0.00 0.00 0.00 90 1011.4
20210614091021 65 44 0.0 0.0 0.00 0.00 0.00 90 1011.4
20210614090516 65 44 0.0 0.0 0.00 0.00 0.00 90 1011.4
20210614090052 65 44 0.0 0.0 0.00 0.00 0.00 90 1011.5
20210614085518 65 44 0.0 0.0 0.00 0.00 0.00 90 1011.4
20210614085015 65 44 0.0 0.0 0.00 0.00 0.00 90 1011.3
20210614084528 65 44 0.0 0.0 0.00 0.00 0.00 90 1011.4
20210614083511 65 44 0.0 0.0 0.00 0.00 0.00 90 1011.4
20210614083027 65 44 0.0 0.0 0.00 0.00 0.00 91 1011.4
20210614082511 65 44 0.0 0.0 0.00 0.00 0.00 91 1011.3
20210614082036 65 44 0.0 0.0 0.00 0.00 0.00 91 1011.3
20210614081532 65 44 0.0 0.0 0.00 0.00 0.00 91 1011.1
20210614081021 65 44 0.0 0.0 0.00 0.00 0.00 91 1011.1
20210614080512 64 44 0.0 0.0 0.00 0.00 0.00 91 1011.3
20210614080029 64 44 0.0 0.0 0.00 0.00 0.00 91 1011.3
20210614075510 64 44 0.0 1.0 0.00 0.00 0.00 91 1011.2
20210614075017 64 46 0.0 0.0 0.00 0.00 0.00 91 1011.2
20210614074533 64 46 0.0 0.0 0.00 0.00 0.00 91 1010.8
20210614073516 64 46 0.0 2.0 0.00 0.00 0.00 91 1010.1
20210614073016 64 20 0.0 2.0 0.00 0.00 0.00 91 1009.3
20210614072512 64 349 0.0 1.0 0.00 0.00 0.00 91 1009.4
20210614072008 64 349 0.0 1.0 0.00 0.00 0.00 91 1009.8
20210614071514 64 13 0.0 2.0 0.00 0.00 0.00 91 1009.8
20210614071012 63 43 0.0 2.0 0.00 0.00 0.00 91 1010.2
20210614070509 64 106 0.0 0.0 0.00 0.00 0.00 90 1010.6
20210614070004 64 106 0.0 0.0 0.00 0.00 0.00 90 1011.1
20210614065501 64 108 0.0 0.0 0.00 0.00 0.00 90 1011.4
20210614065100 64 108 0.0 0.0 0.00 0.00 0.00 90 1011.5
20210614064658 64 108 0.0 0.0 0.00 0.00 0.00 90 1011.7
20210614063636 64 109 0.0 0.0 0.00 0.00 0.00 89 1011.9
20210614063132 64 108 0.0 0.0 0.00 0.00 0.00 89 1012.0
20210614062603 64 108 0.0 0.0 0.00 0.00 0.00 88 1012.0
20210614062057 65 108 0.0 0.0 0.00 0.00 0.00 88 1012.1
20210614061637 65 108 0.0 0.0 0.00 0.00 0.00 88 1012.1
20210614061133 65 108 0.0 0.0 0.00 0.00 0.00 88 1012.1
20210614060556 65 120 0.0 0.0 0.00 0.00 0.00 88 1012.0
20210614060157 65 121 0.0 0.0 0.00 0.00 0.00 88 1012.1
20210614055621 65 120 0.0 0.0 0.00 0.00 0.00 88 1012.1
20210614055055 65 120 0.0 0.0 0.00 0.00 0.00 88 1012.0
20210614054722 65 120 0.0 1.0 0.00 0.00 0.00 88 1012.2
20210614053552 65 63 0.0 0.0 0.00 0.00 0.00 87 1012.2
20210614053111 65 63 0.0 0.0 0.00 0.00 0.00 87 1012.3
20210614052558 65 61 0.0 0.0 0.00 0.00 0.00 87 1012.3
20210614052059 65 63 0.0 1.0 0.00 0.00 0.00 87 1012.4
20210614051613 65 57 0.0 1.0 0.00 0.00 0.00 87 1012.4
20210614051054 66 57 0.0 1.0 0.00 0.00 0.00 87 1012.4
20210614050551 66 57 0.0 1.0 0.00 0.00 0.00 86 1012.3
20210614050130 66 60 0.0 1.0 0.00 0.00 0.00 86 1012.3
20210614045601 66 44 0.0 0.0 0.00 0.00 0.00 87 1012.3
20210614045050 66 94 0.0 0.0 0.00 0.00 0.00 86 1012.4
20210614044559 65 94 0.0 1.0 0.00 0.00 0.00 86 1012.6
20210614043551 65 34 0.0 0.0 0.00 0.00 0.00 86 1012.7
20210614043226 66 34 0.0 0.0 0.00 0.00 0.00 86 1012.6
20210614042549 66 34 0.0 0.0 0.00 0.00 0.00 85 1012.6
20210614042048 66 34 0.0 1.0 0.00 0.00 0.00 85 1012.5
20210614041612 66 34 0.0 1.0 0.00 0.00 0.00 85 1012.6
20210614041047 66 13 0.0 1.0 0.00 0.00 0.00 85 1012.6
20210614040547 66 37 0.0 1.0 0.00 0.00 0.00 84 1012.8
20210614040120 66 20 0.0 1.0 0.00 0.00 0.00 84 1012.8
20210614035549 66 20 0.0 0.0 0.00 0.00 0.00 84 1012.7
20210614035051 66 20 0.0 0.0 0.00 0.00 0.00 84 1012.9
20210614034553 66 20 0.0 0.0 0.00 0.00 0.00 83 1013.0
20210614033543 66 20 0.0 1.0 0.00 0.00 0.00 83 1012.9
20210614033143 66 46 0.0 1.0 0.00 0.00 0.00 83 1012.8
20210614032554 66 54 0.0 1.0 0.00 0.00 0.00 83 1012.7
20210614032041 66 39 0.0 0.0 0.00 0.00 0.00 83 1012.7
20210614031643 66 40 0.0 1.0 0.00 0.00 0.00 83 1012.7
20210614031101 66 97 0.0 0.0 0.00 0.00 0.00 83 1012.8
20210614030541 66 98 0.0 0.0 0.00 0.00 0.00 83 1012.9
20210614030058 67 98 0.0 0.0 0.00 0.00 0.00 82 1012.9
20210614025541 67 97 0.0 0.0 0.00 0.00 0.00 82 1012.8
20210614025055 67 97 0.0 0.0 0.00 0.00 0.00 82 1012.8
20210614024559 67 98 0.0 0.0 0.00 0.00 0.00 81 1012.6
20210614023540 67 57 0.0 2.0 0.00 0.00 0.00 81 1012.7
20210614023113 67 68 0.0 1.0 0.00 0.00 0.00 81 1012.9
20210614022546 67 57 0.0 0.0 0.00 0.00 0.00 81 1012.9
20210614022042 68 100 0.0 1.0 0.00 0.00 0.00 81 1013.0
20210614021622 68 35 0.0 1.0 0.00 0.00 0.00 80 1013.0
20210614021041 68 114 0.0 0.0 0.00 0.00 0.00 80 1012.8
20210614020540 68 113 0.0 1.0 0.00 0.00 0.00 80 1012.9
20210614020216 68 25 0.0 1.0 0.00 0.00 0.00 80 1013.1
20210614015540 68 29 0.0 1.0 0.00 0.00 0.00 80 1012.9
20210614015100 69 115 0.0 0.0 0.00 0.00 0.00 80 1012.9
20210614014553 69 47 0.0 1.0 0.00 0.00 0.00 80 1012.9
20210614013551 69 77 0.0 2.0 0.00 0.00 0.00 79 1013.0
20210614013126 69 342 0.0 2.0 0.00 0.00 0.00 80 1012.8
20210614012542 69 101 0.0 3.0 0.00 0.00 0.00 80 1012.7
20210614012042 69 348 0.0 3.0 0.00 0.00 0.00 81 1012.6
20210614011637 70 43 0.0 0.0 0.00 0.00 0.00 82 1012.5
20210614011040 70 44 0.0 0.0 0.00 0.00 0.00 82 1012.4
20210614010605 70 44 0.0 1.0 0.00 0.00 0.00 81 1012.3
20210614010119 70 32 0.0 2.0 0.00 0.00 0.00 81 1012.1
20210614005539 70 78 0.0 2.0 0.00 0.00 0.00 81 1012.1
20210614005040 70 45 0.0 1.0 0.00 0.00 0.00 81 1012.0
20210614004620 70 46 0.0 2.0 0.00 0.00 0.00 80 1012.1
20210614003547 71 15 0.0 1.0 0.00 0.00 0.00 80 1012.0
20210614003120 71 315 0.0 1.0 0.00 0.00 0.00 81 1011.8
20210614002606 71 77 0.0 1.0 0.00 0.00 0.00 81 1011.9
20210614002040 71 25 0.0 2.0 0.00 0.00 0.00 81 1011.8